EW7337 Weather Reports


time (UTC)temp
F
wind
direction
speed
knots
gust
knots
rain 1hr
in
rain 24hr
in
rain mn
in
humidity
%
barometer
mb
20260831035809 75 101 3.5 8.7 0.00 0.00 0.00 52 1029.6
20260831035301 75 107 2.6 8.7 0.00 0.00 0.00 53 1029.6
20260831034757 75 55 1.7 7.8 0.00 0.00 0.00 53 1029.7
20260831034251 75 123 3.5 7.0 0.00 0.00 0.00 54 1029.7
20260831033747 74 85 2.6 7.0 0.00 0.00 0.00 55 1029.7
20260831033246 74 102 1.7 7.0 0.00 0.00 0.00 54 1029.7
20260831033140 74 114 3.5 6.1 0.00 0.00 0.00 54 1029.9
20260831032246 74 59 1.7 7.0 0.00 0.00 0.00 55 1029.9
20260831032136 74 107 2.6 7.0 0.00 0.00 0.00 55 1030.0
20260831031238 74 99 2.6 6.1 0.00 0.00 0.00 54 1030.0
20260831031136 74 93 2.6 7.8 0.00 0.00 0.00 52 1030.0
20260831030528 74 111 0.9 6.1 0.00 0.00 0.00 57 1030.2
20260831030407 74 87 5.2 7.8 0.00 0.00 0.00 52 1030.1
20260831025236 74 153 1.7 8.7 0.00 0.00 0.00 57 1030.3
20260831024736 74 110 2.6 8.7 0.00 0.00 0.00 57 1030.3
20260831023733 74 96 3.5 7.0 0.00 0.00 0.00 56 1030.5
20260831023231 74 180 2.6 7.0 0.00 0.00 0.00 54 1030.5
20260831022728 74 169 0.9 7.0 0.00 0.00 0.00 50 1030.5
20260831022229 74 161 0.9 6.1 0.00 0.00 0.00 51 1030.7
20260831021726 74 129 1.7 4.3 0.00 0.00 0.00 51 1030.8
20260831021225 74 57 1.7 4.3 0.00 0.00 0.00 52 1030.8
20260831020736 74 72 0.9 3.5 0.00 0.00 0.00 52 1030.8
20260831020224 74 170 0.9 5.2 0.00 0.00 0.00 51 1030.9
20260831015719 74 130 0.9 5.2 0.00 0.00 0.00 52 1031.1
20260831015220 73 94 0.9 2.6 0.00 0.00 0.00 53 1031.2
20260831014717 73 138 0.9 4.3 0.00 0.00 0.00 53 1031.3
20260831014213 72 30 1.7 4.3 0.00 0.00 0.00 54 1031.3
20260831013712 72 346 0.9 5.2 0.00 0.00 0.00 52 1031.4
20260831013210 71 42 1.7 7.8 0.00 0.00 0.00 53 1031.5
20260831012709 71 355 1.7 7.8 0.00 0.00 0.00 56 1031.6
20260831012209 71 159 1.7 3.5 0.00 0.00 0.00 55 1031.6
20260831011707 71 130 0.9 3.5 0.00 0.00 0.00 58 1031.6
20260831011212 70 286 0.9 2.6 0.00 0.00 0.00 58 1031.6
20260831010710 70 355 0.9 3.5 0.00 0.00 0.00 59 1031.8
20260831010205 69 280 0.9 3.5 0.00 0.00 0.00 60 1031.8
20260831005706 68 38 0.9 3.5 0.00 0.00 0.00 61 1031.8
20260831005208 68 324 1.7 3.5 0.00 0.00 0.00 61 1031.8
20260831005054 68 355 1.7 2.6 0.00 0.00 0.00 63 1031.8
20260831004204 67 213 0.9 3.5 0.00 0.00 0.00 64 1032.0
20260831003705 67 229 1.7 3.5 0.00 0.00 0.00 65 1032.2
20260831003209 66 282 0.0 2.6 0.00 0.00 0.00 66 1032.1
20260831002710 66 312 0.0 2.6 0.00 0.00 0.00 66 1032.1
20260831002554 65 312 1.7 2.6 0.00 0.00 0.00 68 1032.1
20260831001725 65 292 0.9 5.2 0.00 0.00 0.00 68 1032.1
20260831001535 64 273 1.7 5.2 0.00 0.00 0.00 69 1032.0
20260831000708 64 280 0.0 2.6 0.00 0.00 0.00 70 1032.0
20260831000218 64 315 1.7 2.6 0.00 0.00 0.00 70 1032.0
20260830235710 63 296 0.0 3.5 0.00 0.00 0.00 72 1032.0
20260830235206 63 271 1.7 3.5 0.00 0.00 0.00 73 1031.9
20260830235048 62 284 0.9 2.6 0.00 0.00 0.00 75 1031.9
20260830234204 62 310 1.7 2.6 0.00 0.00 0.00 78 1031.9
20260830233706 61 284 0.9 3.5 0.00 0.00 0.00 79 1032.0
20260830233209 60 266 1.7 3.5 0.00 0.00 0.00 80 1032.0
20260830232726 60 209 1.7 3.5 0.00 0.00 0.00 82 1031.9
20260830232344 58 296 1.7 3.5 0.00 0.00 0.00 85 1031.9
20260830232256 59 245 0.9 2.6 0.00 0.00 0.00 84 1032.0
20260830230705 57 278 0.9 2.6 0.00 0.00 0.00 88 1031.9
20260830230548 57 294 0.9 3.5 0.00 0.00 0.00 89 1031.9
20260830225707 56 277 0.0 3.5 0.00 0.00 0.00 91 1031.8
20260830225208 56 287 0.9 2.6 0.00 0.00 0.00 91 1032.0
20260830224705 55 227 0.9 2.6 0.00 0.00 0.00 92 1032.2
20260830224206 55 203 1.7 2.6 0.00 0.00 0.00 92 1032.2
20260830223705 54 215 0.0 2.6 0.00 0.00 0.00 93 1032.2
20260830223210 54 303 1.7 2.6 0.00 0.00 0.00 93 1032.2
20260830222709 53 217 0.0 0.9 0.00 0.00 0.00 94 1032.2
20260830222208 53 290 0.0 0.0 0.00 0.00 0.00 94 1032.2
20260830221708 53 290 0.0 0.9 0.00 0.00 0.00 94 1032.1
20260830221206 52 290 0.0 2.6 0.00 0.00 0.00 94 1032.1
20260830220706 52 290 1.7 2.6 0.00 0.00 0.00 94 1032.1
20260830220207 51 275 0.0 1.7 0.00 0.00 0.00 95 1032.1
20260830215708 51 267 0.0 0.0 0.00 0.00 0.00 94 1032.0
20260830215217 51 267 0.0 0.0 0.00 0.00 0.00 94 1032.0
20260830215049 51 267 0.0 0.0 0.00 0.00 0.00 94 1031.9
20260830214207 50 267 0.0 0.0 0.00 0.00 0.00 94 1031.9
20260830213704 50 267 0.0 0.0 0.00 0.00 0.00 94 1031.8
20260830213209 50 267 0.0 0.0 0.00 0.00 0.00 95 1031.7
20260830213055 49 267 0.0 0.0 0.00 0.00 0.00 95 1031.7
20260830212210 49 267 0.0 0.0 0.00 0.00 0.00 94 1031.7
20260830211708 48 267 0.0 0.0 0.00 0.00 0.00 94 1031.7
20260830211209 48 267 0.0 0.0 0.00 0.00 0.00 94 1031.7
20260830210708 47 267 0.0 0.0 0.00 0.00 0.00 94 1031.6
20260830210210 47 267 0.0 0.0 0.00 0.00 0.00 93 1031.6
20260830210053 47 267 0.0 0.0 0.00 0.00 0.00 93 1031.5
20260830205209 47 267 0.0 0.0 0.00 0.00 0.00 93 1031.4
20260830204709 47 267 0.0 0.0 0.00 0.00 0.00 93 1031.3
20260830204542 47 267 0.0 0.0 0.00 0.00 0.00 93 1031.3
20260830204032 47 267 0.0 0.0 0.00 0.00 0.00 93 1031.3
20260830203207 47 267 0.0 0.0 0.00 0.00 0.00 93 1031.3
20260830202705 47 267 0.0 0.0 0.00 0.00 0.00 93 1031.3
20260830202207 47 267 0.0 0.0 0.00 0.00 0.00 93 1031.2
20260830202049 47 267 0.0 0.0 0.00 0.00 0.00 93 1031.2
20260830201204 47 267 0.0 0.0 0.00 0.00 0.00 93 1031.1
20260830200706 47 267 0.0 0.0 0.00 0.00 0.00 93 1031.2
20260830200209 47 267 0.0 0.0 0.00 0.00 0.00 93 1031.1
20260830195710 47 267 0.0 0.0 0.00 0.00 0.00 93 1031.0
20260830195209 47 267 0.0 0.0 0.00 0.00 0.00 93 1030.9
20260830194708 47 267 0.0 0.0 0.00 0.00 0.00 93 1031.0
20260830194209 47 267 0.0 0.0 0.00 0.00 0.00 93 1030.9
20260830193709 47 267 0.0 0.0 0.00 0.00 0.00 93 1030.9
20260830193550 47 267 0.0 0.0 0.00 0.00 0.00 93 1030.8
20260830192709 47 267 0.0 0.0 0.00 0.00 0.00 93 1030.7
20260830192211 47 267 0.0 0.0 0.00 0.00 0.00 93 1030.5
20260830191708 47 267 0.0 0.0 0.00 0.00 0.00 93 1030.4
20260830191212 47 267 0.0 0.0 0.00 0.00 0.00 93 1030.4
20260830190705 48 267 0.0 0.0 0.00 0.00 0.00 93 1030.4
20260830190552 48 267 0.0 1.7 0.00 0.00 0.00 93 1030.3
20260830185704 48 267 0.9 1.7 0.00 0.00 0.00 92 1030.3
20260830185205 48 267 0.9 1.7 0.00 0.00 0.00 92 1030.1
20260830184918 48 267 0.0 1.7 0.00 0.00 0.00 92 1030.1
20260830184821 48 267 0.9 1.7 0.00 0.00 0.00 93 1030.2
20260830184048 48 228 0.0 0.0 0.00 0.00 0.00 92 1030.3
20260830183553 48 228 0.0 0.0 0.00 0.00 0.00 92 1030.3
20260830182706 48 228 0.0 0.0 0.00 0.00 0.00 92 1030.3
20260830182208 48 228 0.0 0.0 0.00 0.00 0.00 93 1030.5
20260830181712 48 228 0.0 0.0 0.00 0.00 0.00 92 1030.5
20260830181211 48 228 0.0 0.0 0.00 0.00 0.00 92 1030.5
20260830180709 48 228 0.0 0.0 0.00 0.00 0.00 92 1030.5
20260830180209 48 228 0.0 0.0 0.00 0.00 0.00 92 1030.6
20260830175706 48 228 0.0 0.0 0.00 0.00 0.00 92 1030.5
20260830175203 48 228 0.0 0.0 0.00 0.00 0.00 92 1030.6
20260830175021 48 228 0.0 0.0 0.00 0.00 0.00 92 1030.5
20260830174156 48 228 0.0 0.0 0.00 0.00 0.00 92 1030.5
20260830173738 48 228 0.0 0.0 0.00 0.00 0.00 92 1030.6
20260830173320 48 228 0.0 0.0 0.00 0.00 0.00 92 1030.7
20260830172143 48 228 0.0 0.0 0.00 0.00 0.00 91 1030.7
20260830171643 48 228 0.0 0.0 0.00 0.00 0.00 91 1030.7
20260830171140 48 228 0.0 0.0 0.00 0.00 0.00 91 1030.7
20260830170636 48 228 0.0 0.0 0.00 0.00 0.00 91 1030.7
20260830170136 48 228 0.0 0.0 0.00 0.00 0.00 91 1030.9
20260830170012 48 228 0.0 0.0 0.00 0.00 0.00 91 1030.9
20260830165129 48 228 0.0 0.0 0.00 0.00 0.00 91 1030.9
20260830164623 48 228 0.0 0.0 0.00 0.00 0.00 91 1030.8
20260830163949 48 228 0.0 0.0 0.00 0.00 0.00 91 1030.9
20260830163123 48 228 0.0 0.0 0.00 0.00 0.00 91 1031.0
20260830162946 48 228 0.0 0.0 0.00 0.00 0.00 91 1030.9
20260830162119 48 228 0.0 0.0 0.00 0.00 0.00 91 1030.9
20260830161612 48 228 0.0 0.0 0.00 0.00 0.00 91 1031.0
20260830161107 48 228 0.0 0.0 0.00 0.00 0.00 91 1031.0
20260830160606 49 228 0.0 0.0 0.00 0.00 0.00 91 1031.2
20260830160110 49 228 0.0 0.0 0.00 0.00 0.00 90 1031.2
20260830155925 49 228 0.0 0.0 0.00 0.00 0.00 90 1031.1
20260830155449 49 228 0.0 0.0 0.00 0.00 0.00 90 1031.2
20260830154828 49 228 0.0 0.0 0.00 0.00 0.00 90 1031.2
20260830154735 49 228 0.0 0.0 0.00 0.00 0.00 90 1031.2
20260830153844 49 228 0.0 0.0 0.00 0.00 0.00 90 1031.2
20260830153740 49 228 0.0 0.0 0.00 0.00 0.00 90 1031.3
20260830152610 49 228 0.0 0.0 0.00 0.00 0.00 90 1031.2
20260830152112 49 228 0.0 0.0 0.00 0.00 0.00 90 1031.2
20260830151608 49 228 0.0 0.0 0.00 0.00 0.00 90 1031.3
20260830151111 49 228 0.0 0.0 0.00 0.00 0.00 90 1031.3
20260830150609 49 228 0.0 0.0 0.00 0.00 0.00 90 1031.2
20260830150156 50 228 0.0 0.0 0.00 0.00 0.00 90 1031.2
20260830145734 50 228 0.0 0.0 0.00 0.00 0.00 89 1031.2
20260830144610 50 228 0.0 0.0 0.00 0.00 0.00 90 1031.5
20260830144516 50 228 0.0 0.0 0.00 0.00 0.00 89 1031.5
20260830143622 50 228 0.0 0.0 0.00 0.00 0.00 89 1031.4
20260830143123 50 228 0.0 0.0 0.00 0.00 0.00 89 1031.5
20260830142609 50 228 0.0 0.0 0.00 0.00 0.00 89 1031.5
20260830142451 50 228 0.0 0.0 0.00 0.00 0.00 89 1031.5
20260830141615 51 228 0.0 0.0 0.00 0.00 0.00 89 1031.5
20260830141109 51 228 0.0 0.0 0.00 0.00 0.00 89 1031.5
20260830140605 51 228 0.0 0.0 0.00 0.00 0.00 89 1031.6
20260830140111 51 228 0.0 0.0 0.00 0.00 0.00 88 1031.7
20260830135609 51 228 0.0 0.0 0.00 0.00 0.00 88 1031.6
20260830135108 51 228 0.0 0.0 0.00 0.00 0.00 88 1031.7
20260830134606 51 228 0.0 0.0 0.00 0.00 0.00 88 1031.6
20260830134106 51 228 0.0 0.0 0.00 0.00 0.00 88 1031.6
20260830133610 51 228 0.0 0.0 0.00 0.00 0.00 88 1031.6
20260830133520 51 228 0.0 0.0 0.00 0.00 0.00 88 1031.6
20260830132608 52 228 0.0 0.0 0.00 0.00 0.00 88 1031.6
20260830132456 52 228 0.0 0.0 0.00 0.00 0.00 88 1031.7
20260830131608 52 228 0.0 1.7 0.00 0.00 0.00 87 1031.7
20260830131112 52 228 0.9 1.7 0.00 0.00 0.00 87 1031.6
20260830130612 52 105 0.0 0.0 0.00 0.00 0.00 87 1031.6
20260830130500 52 105 0.0 0.0 0.00 0.00 0.00 87 1031.6
20260830125610 52 105 0.0 0.9 0.00 0.00 0.00 87 1031.6
20260830125112 52 105 0.9 4.3 0.00 0.00 0.00 87 1031.6
20260830124606 52 134 0.0 4.3 0.00 0.00 0.00 87 1031.6
20260830124110 52 142 0.9 1.7 0.00 0.00 0.00 87 1031.5
20260830123604 53 115 1.7 2.6 0.00 0.00 0.00 86 1031.4
20260830123104 53 112 1.7 2.6 0.00 0.00 0.00 86 1031.4
20260830122606 53 46 0.0 0.0 0.00 0.00 0.00 85 1031.3
20260830122454 53 46 0.0 0.0 0.00 0.00 0.00 85 1031.1
20260830121602 53 46 0.0 0.0 0.00 0.00 0.00 84 1031.3
20260830121118 53 46 0.0 0.0 0.00 0.00 0.00 84 1031.3
20260830120608 53 46 0.0 0.0 0.00 0.00 0.00 84 1031.3
20260830120111 53 46 0.0 0.0 0.00 0.00 0.00 84 1031.2
20260830115607 54 46 0.0 0.0 0.00 0.00 0.00 83 1031.3
20260830115111 54 46 0.0 0.0 0.00 0.00 0.00 83 1031.3
20260830114607 54 46 0.0 0.0 0.00 0.00 0.00 83 1031.3
20260830114108 54 46 0.0 0.0 0.00 0.00 0.00 83 1031.2
20260830113608 54 46 0.0 0.0 0.00 0.00 0.00 82 1031.2
20260830113109 55 46 0.0 0.0 0.00 0.00 0.00 82 1031.3
20260830112609 55 46 0.0 0.0 0.00 0.00 0.00 82 1031.4
20260830112109 55 46 0.0 0.0 0.00 0.00 0.00 81 1031.3
20260830111614 55 46 0.0 0.0 0.00 0.00 0.00 81 1031.5
20260830111111 55 46 0.0 0.0 0.00 0.00 0.00 80 1031.4
20260830110606 55 46 0.0 0.0 0.00 0.00 0.00 79 1031.3
20260830110105 56 46 0.0 0.0 0.00 0.00 0.00 79 1031.2
20260830105607 56 46 0.0 0.0 0.00 0.00 0.00 78 1031.1
20260830105106 56 46 0.0 0.0 0.00 0.00 0.00 78 1031.2
20260830104605 56 46 0.0 0.0 0.00 0.00 0.00 77 1031.2
20260830104103 56 46 0.0 0.0 0.00 0.00 0.00 77 1031.1
20260830103611 57 46 0.0 0.0 0.00 0.00 0.00 77 1030.9
20260830103112 57 46 0.0 0.0 0.00 0.00 0.00 76 1031.0
20260830102607 57 46 0.0 0.0 0.00 0.00 0.00 76 1030.8
20260830102107 57 46 0.0 0.0 0.00 0.00 0.00 76 1030.8
20260830101612 58 46 0.0 0.0 0.00 0.00 0.00 75 1030.9
20260830101105 58 46 0.0 0.0 0.00 0.00 0.00 76 1030.8
20260830100605 58 46 0.0 0.0 0.00 0.00 0.00 75 1030.9
20260830100448 58 46 0.0 0.0 0.00 0.00 0.00 75 1030.7
20260830095924 58 46 0.0 0.0 0.00 0.00 0.00 75 1030.6
20260830095106 59 46 0.0 0.0 0.00 0.00 0.00 75 1030.7
20260830094950 59 46 0.0 0.0 0.00 0.00 0.00 74 1030.6
20260830094445 59 46 0.0 0.0 0.00 0.00 0.00 74 1030.5
20260830093607 59 46 0.0 0.0 0.00 0.00 0.00 74 1030.4
20260830093108 60 46 0.0 0.0 0.00 0.00 0.00 74 1030.5
20260830092608 60 46 0.0 0.0 0.00 0.00 0.00 74 1030.4
20260830092108 60 46 0.0 0.9 0.00 0.00 0.00 74 1030.5
20260830091614 60 46 0.0 3.5 0.00 0.00 0.00 73 1030.4
20260830091111 60 46 1.7 3.5 0.00 0.00 0.00 72 1030.4
20260830090926 60 16 0.0 3.5 0.00 0.00 0.00 71 1030.4
20260830090105 60 28 1.7 3.5 0.00 0.00 0.00 71 1030.3
20260830085603 61 41 0.0 2.6 0.00 0.00 0.00 70 1030.3
20260830085455 61 42 0.9 2.6 0.00 0.00 0.00 69 1030.3
20260830085003 62 60 0.0 0.9 0.00 0.00 0.00 69 1030.1
20260830084105 62 60 0.0 1.7 0.00 0.00 0.00 68 1030.0
20260830083607 62 60 0.0 1.7 0.00 0.00 0.00 68 1030.0
20260830083108 62 24 0.0 0.9 0.00 0.00 0.00 67 1030.0
20260830082606 63 61 0.0 0.9 0.00 0.00 0.00 67 1030.0
20260830082108 63 61 0.0 0.9 0.00 0.00 0.00 67 1029.9
20260830081607 63 57 0.0 1.7 0.00 0.00 0.00 66 1029.8
20260830081110 64 57 0.0 1.7 0.00 0.00 0.00 66 1029.9
20260830080608 64 109 0.9 3.5 0.00 0.00 0.00 65 1029.8
20260830080108 64 62 0.0 3.5 0.00 0.00 0.00 63 1029.8
20260830075835 65 107 1.7 5.2 0.00 0.00 0.00 61 1029.6
20260830075734 65 82 0.9 3.5 0.00 0.00 0.00 62 1029.8
20260830074608 66 115 2.6 5.2 0.00 0.00 0.00 60 1029.7
20260830074110 67 103 1.7 2.6 0.00 0.00 0.00 58 1029.7
20260830073607 67 94 0.9 1.7 0.00 0.00 0.00 57 1029.7
20260830073111 68 99 0.0 1.7 0.00 0.00 0.00 56 1029.6
20260830072606 68 99 0.0 0.9 0.00 0.00 0.00 55 1029.6
20260830072107 68 96 0.0 0.9 0.00 0.00 0.00 54 1029.6
20260830071604 69 50 0.9 1.7 0.00 0.00 0.00 54 1029.5
20260830071503 69 73 0.0 3.5 0.00 0.00 0.00 53 1029.6
20260830070604 69 103 1.7 3.5 0.00 0.00 0.00 53 1029.7
20260830070106 69 94 0.9 3.5 0.00 0.00 0.00 52 1029.5
20260830065604 70 103 0.9 3.5 0.00 0.00 0.00 52 1029.5
20260830065104 70 93 0.9 3.5 0.00 0.00 0.00 52 1029.5
20260830064950 70 49 1.7 3.5 0.00 0.00 0.00 53 1029.5
20260830064501 70 80 0.9 2.6 0.00 0.00 0.00 54 1029.5
20260830063607 70 81 1.7 6.1 0.00 0.00 0.00 54 1029.5
20260830063109 70 100 1.7 6.1 0.00 0.00 0.00 54 1029.5
20260830062606 71 88 0.9 5.2 0.00 0.00 0.00 55 1029.4
20260830062109 71 88 1.7 6.1 0.00 0.00 0.00 55 1029.5
20260830061608 71 89 1.7 6.1 0.00 0.00 0.00 54 1029.5
20260830061107 71 117 0.9 6.1 0.00 0.00 0.00 53 1029.4
20260830060607 72 123 0.9 7.0 0.00 0.00 0.00 53 1029.6
20260830060109 72 117 1.7 7.0 0.00 0.00 0.00 52 1029.4
20260830055607 72 167 1.7 6.1 0.00 0.00 0.00 48 1029.5
20260830055108 72 105 1.7 6.1 0.00 0.00 0.00 47 1029.6
20260830054606 72 122 0.9 5.2 0.00 0.00 0.00 48 1029.5
20260830054110 72 155 1.7 5.2 0.00 0.00 0.00 48 1029.6
20260830053606 72 157 2.6 5.2 0.00 0.00 0.00 49 1029.6
20260830053108 72 167 0.9 6.1 0.00 0.00 0.00 48 1029.4
20260830052950 72 113 2.6 6.1 0.00 0.00 0.00 49 1029.6
20260830052112 72 109 0.9 5.2 0.00 0.00 0.00 48 1029.6
20260830051609 73 95 0.9 6.1 0.00 0.00 0.00 49 1029.6
20260830051106 73 101 1.7 6.1 0.00 0.00 0.00 49 1029.7
20260830050604 74 148 2.6 5.2 0.00 0.00 0.00 49 1029.7
20260830050105 74 123 1.7 5.2 0.00 0.00 0.00 50 1029.7
20260830045604 74 113 1.7 5.2 0.00 0.00 0.00 50 1029.6
20260830045104 74 98 1.7 5.2 0.00 0.00 0.00 49 1029.6
20260830044602 74 111 1.7 5.2 0.00 0.00 0.00 49 1029.7
20260830044105 74 138 1.7 7.0 0.00 0.00 0.00 47 1029.7
20260830043608 73 146 1.7 7.0 0.00 0.00 0.00 47 1029.6
20260830043109 73 155 2.6 6.1 0.00 0.00 0.00 47 1029.7
20260830042606 73 104 1.7 7.0 0.00 0.00 0.00 44 1029.7
20260830042114 73 104 1.7 7.0 0.00 0.00 0.00 43 1029.7
20260830041603 73 180 3.5 7.0 0.00 0.00 0.00 42 1029.6
20260830041106 73 112 1.7 7.0 0.00 0.00 0.00 44 1029.7
20260830041006 72 154 2.6 7.0 0.00 0.00 0.00 43 1029.7
20260830040113 73 126 2.6 8.7 0.00 0.00 0.00 43 1029.7